Appleton, WI

8:43 AM CDT on July 20, 2017 (GMT -0500)
Outagamie County Regional

Weather History for KATW - April, 2013

Change the Weather History Date:

Thursday, April 4, 2013

  Actual Average Record
Temperature  
Mean Temperature 41 °F -  
Max Temperature 50 °F 48 °F 71 °F (1997)
Min Temperature 32 °F 29 °F 16 °F (1972)
Degree Days  
Heating Degree Days 24    
Moisture  
Dew Point 25 °F    
Average Humidity 58    
Maximum Humidity 70    
Minimum Humidity 40    
Precipitation  
Precipitation 0.00 in - - ()
Sea Level Pressure  
Sea Level Pressure 30.04 in    
Wind  
Wind Speed 14 mph (WSW)    
Max Wind Speed 21 mph    
Max Gust Speed 28 mph    
Visibility 10 miles    
Events Rain    
Averages and records for this station are not official NWS values.
T = Trace of Precipitation, MM = Missing Value Source: NWS Daily Summary

Daily Weather History Graph

Daily Weather History Graph

Search for Another Location

Airport or City:

Trip Planner

Search our weather history database for the weather conditions in past years. The results will help you decide how hot, cold, wet, or windy it might be!

Date:

Astronomy

Apr. 04, 2013 Rise Set
Actual Time 6:29 AM CDT 7:25 PM CDT
Civil Twilight 5:59 AM CDT 7:54 PM CDT
Nautical Twilight 5:24 AM CDT 8:30 PM CDT
Astronomical Twilight 4:48 AM CDT 9:06 PM CDT
Moon 3:08 AM CDT (4/4) 1:31 PM CDT (4/4)
Length of Visible Light 13h 54m
Length of Day
12h 55m
Waning Crescent, 33% of the Moon is Illuminated
Apr 4
Waning Crescent
Apr 10
New
Apr 18
First Quarter
Apr 25
Full
May 2
Last Quarter

Hourly Weather History & Observations

Time (CDT) Temp. Windchill Dew Point Humidity Pressure Visibility Wind Dir Wind Speed Gust Speed Precip Events Conditions
12:55 AM 32.0 °F 22.5 °F 23.0 °F 69% 30.20 in 10.0 mi SSW 12.7 mph - N/A   Clear
1:35 AM 32.0 °F 22.5 °F 23.0 °F 69% 30.18 in 10.0 mi South 12.7 mph - N/A   Clear
2:15 AM 32.0 °F 22.5 °F 23.0 °F 69% 30.16 in 10.0 mi South 12.7 mph - N/A   Clear
2:35 AM 32.0 °F 22.5 °F 23.0 °F 69% 30.15 in 10.0 mi South 12.7 mph - N/A   Clear
3:35 AM 32.0 °F 22.5 °F 23.0 °F 69% 30.13 in 10.0 mi SSW 12.7 mph - N/A   Clear
5:15 AM 32.0 °F 22.1 °F 21.2 °F 64% 30.11 in 10.0 mi SSW 13.8 mph - N/A   Clear
5:45 AM 32.0 °F 21.6 °F 21.2 °F 64% 30.10 in 10.0 mi SSW 15.0 mph - N/A   Clear
6:45 AM 32.0 °F 22.1 °F 21.2 °F 64% 30.08 in 10.0 mi SSW 13.8 mph - N/A   Clear
7:45 AM 35.6 °F 24.8 °F 21.2 °F 56% 30.06 in 10.0 mi SW 19.6 mph - N/A   Partly Cloudy
8:45 AM 39.2 °F 29.3 °F 19.4 °F 45% 30.04 in 10.0 mi SW 20.7 mph 27.6 mph N/A   Scattered Clouds
9:45 AM 39.2 °F 29.8 °F 21.2 °F 49% 30.03 in 10.0 mi SW 18.4 mph 26.5 mph N/A   Mostly Cloudy
10:45 AM 44.6 °F 36.9 °F 24.8 °F 46% 30.01 in 10.0 mi SW 18.4 mph - N/A   Scattered Clouds
11:45 AM 48.2 °F - 24.8 °F 40% 29.99 in 10.0 mi WSW 18.4 mph 24.2 mph N/A   Mostly Cloudy
12:45 PM 48.2 °F - 26.6 °F 43% 29.97 in 10.0 mi WSW 11.5 mph - N/A   Mostly Cloudy
1:45 PM 44.6 °F 38.1 °F 32.0 °F 61% 29.97 in 10.0 mi WNW 13.8 mph - N/A Rain Light Rain
2:45 PM 48.2 °F - 32.0 °F 54% 29.95 in 10.0 mi West 15.0 mph - N/A   Mostly Cloudy
3:45 PM 50.0 °F - 32.0 °F 50% 29.94 in 10.0 mi West 17.3 mph - N/A   Scattered Clouds
4:45 PM 50.0 °F - 30.2 °F 47% 29.94 in 10.0 mi West 13.8 mph - N/A   Scattered Clouds
5:45 PM 48.2 °F - 30.2 °F 50% 29.95 in 10.0 mi West 15.0 mph - N/A   Scattered Clouds
6:45 PM 46.4 °F 41.1 °F 30.2 °F 53% 29.96 in 10.0 mi West 11.5 mph 17.3 mph N/A   Scattered Clouds
7:45 PM 39.2 °F 33.0 °F 30.2 °F 70% 29.97 in 10.0 mi West 9.2 mph - N/A   Scattered Clouds
8:45 PM 39.2 °F 33.6 °F 28.4 °F 65% 29.98 in 10.0 mi West 8.1 mph - N/A   Scattered Clouds
9:45 PM 39.2 °F 32.5 °F 28.4 °F 65% 30.01 in 10.0 mi NW 10.4 mph - N/A   Scattered Clouds
10:45 PM 37.4 °F 30.8 °F 24.8 °F 60% 30.03 in 10.0 mi North 9.2 mph - N/A   Scattered Clouds
10:55 PM 37.4 °F 30.3 °F 26.6 °F 65% 30.04 in 10.0 mi North 10.4 mph - N/A   Clear
11:15 PM 37.4 °F 29.8 °F 23.0 °F 56% 30.04 in 10.0 mi North 11.5 mph - N/A   Clear
11:35 PM 35.6 °F 27.1 °F 23.0 °F 60% 30.04 in 10.0 mi North 12.7 mph - N/A   Clear
11:55 PM 35.6 °F 27.5 °F 23.0 °F 60% 30.05 in 10.0 mi NNE 11.5 mph - N/A   Clear